This demonstration page uses our WeatherBlox Daily Observations layout. Learn more.

Left ArrowRight Arrow

34.02893, -84.19858

Hourly Observations for August 1, 2022

Temp ( °F °C ) Dew Point ( °F °C ) Humidity (%) Winds ( mph kmh ) Pressure ( in mb ) Visibility ( mi km ) Precip ( " mm )
12:53 am 00:53 Clear 73 22.8 71 21.7 94 94 Calm 30.12 1020 10 16 0.00 0.00
1:53 am 01:53 Clear 73 22.8 71 21.7 94 94 Calm 30.11 1020 10 16 0.00 0.00
2:53 am 02:53 Clear 71 21.7 70 21.1 96 96 Calm 30.10 1019 8 13 0.00 0.00
3:53 am 03:53 Clear 71 21.7 70 21.1 96 96 Calm 30.10 1019 8 13 0.00 0.00
4:53 am 04:53 undefined 71 21.7 70 21.1 96 96 Calm 30.10 1019 7 11 0.00 0.00
5:53 am 05:53 Clear 71 21.7 70 21.1 96 96 Calm 30.12 1020 8 13 0.00 0.00
6:53 am 06:53 Sunny 71 21.7 70 21.1 96 96 Calm 30.12 1020 8 13 0.00 0.00
7:53 am 07:53 Mostly Cloudy 75 23.9 73 22.8 94 94 SSW 3 6 30.12 1020 10 16 0.00 0.00
8:53 am 08:53 Sunny 78 25.6 72 22.2 82 82 SW 6 9 30.13 1020 10 16 0.00 0.00
9:53 am 09:53 Cloudy 79 26.1 71 21.7 77 77 W 8 13 30.14 1021 10 16 0.00 0.00
10:53 am 10:53 Cloudy 80 26.7 71 21.7 74 74 W 7 11 30.14 1021 10 16 0.00 0.00
11:53 am 11:53 Mostly Cloudy 80 26.7 70 21.1 71 71 WNW 8 13 30.16 1021 10 16 0.00 0.00
12:53 pm 12:53 Mostly Cloudy 81 27.2 70 21.1 69 69 W 8 13 30.16 1021 10 16 0.00 0.00
1:53 pm 13:53 Mostly Cloudy 81 27.2 69 20.6 67 67 W 10 17 30.15 1021 10 16 0.00 0.00
2:53 pm 14:53 Partly Cloudy 81 27.2 70 21.1 69 69 NW 9 15 30.15 1021 10 16 0.00 0.00
3:53 pm 15:53 Mostly Cloudy 80 26.7 71 21.7 74 74 NW 7 11 30.13 1020 10 16 0.00 0.00
4:09 pm 16:09 Cloudy 80 26.7 72 22.2 76 76 N 7 11 30.12 1020 10 16 0.00 0.00
4:21 pm 16:21 Mostly Cloudy 80 26.7 72 22.2 76 76 N 6 9 30.12 1020 10 16 0.00 0.00
4:53 pm 16:53 Mostly Cloudy 79 26.1 71 21.7 77 77 N 10 17 30.12 1020 10 16 0.00 0.00
5:53 pm 17:53 Mostly Cloudy 78 25.6 70 21.1 76 76 W 8 13 30.10 1019 10 16 0.00 0.00
6:53 pm 18:53 Mostly Cloudy 78 25.6 69 20.6 74 74 SSW 5 7 30.07 1018 10 16 0.00 0.00
7:53 pm 19:53 Mostly Sunny 77 25 69 20.6 77 77 NNW 6 9 30.07 1018 10 16 0.00 0.00
8:53 pm 20:53 Clear 76 24.4 68 20 77 77 NW 3 6 30.07 1018 10 16 0.00 0.00
9:53 pm 21:53 Clear 74 23.3 69 20.6 85 85 Calm 30.09 1019 10 16 0.00 0.00
10:53 pm 22:53 Clear 72 22.2 69 20.6 91 91 Calm 30.09 1019 10 16 0.00 0.00
11:53 pm 23:53 Clear 73 22.8 70 21.1 90 90 Calm 30.09 1019 10 16 0.00 0.00

Powered by AerisWeather